Home   Weather   Wolfsberg   Past weeks

Flag for Austria Past Weather in Wolfsberg, Carinthia, Austria — Yesterday and Last 2 Weeks

Now
16 °F

Sleet. Clear.


Feels Like: 16 °F
Forecast: 15 / 37 °F
Wind: 1 mph from North

Location: Zeltweg

Current Time: Dec 6, 2016 at 7:04:34 am

Latest Report: Dec 6, 2016 at 5:50 am


Visibility: 5 mi

Pressure: 30.36 "Hg

Humidity: 93%

Dew Point: 14 °F

Location of WolfsbergLocation

Past Weather in Wolfsberg — Graph

°F

Wolfsberg Temperature Yesterday

Maximum temperature yesterday: 36 °F (at 2:20 pm)
Minimum temperature yesterday: 18 °F (at 5:50 am)
Average temperature yesterday: 27 °F

High & Low Weather Summary for the Past Weeks

 TemperatureHumidityPressure
High61 °F (Nov 22, 11:50 am)100% (Nov 23, 8:20 am)30.48 "Hg (Nov 23, 8:20 am)
Low14 °F (Dec 6, 4:50 am)21% (Dec 2, 5:50 am)29.80 "Hg (Dec 2, 5:50 am)
Average39 °F71%30.13 "Hg
* Reported Nov 21 5:50 am — Dec 6 5:50 am, Wolfsberg, Weather by CustomWeather, © 2016

Note: Actual official high and low records may vary slightly from our data, if they occured in-between our weather recording intervals... More about our weather records

Advertising

Wolfsberg Weather History for the Previous 24 Hours

Scroll right to see more
 ConditionsComfort  
Time TempWeatherWind HumidityBarometerVisibility
5:50 am
Tue, Dec 6
16 °FSleet. Clear.1 mph93%30.36 "Hg5 mi
4:50 am14 °FClear.1 mph92%30.33 "Hg6 mi
3:50 am18 °FClear.1 mph86%30.36 "Hg6 mi
9:50 pm
Mon, Dec 5
21 °FClear.2 mph86%30.36 "Hg6 mi
8:50 pm23 °FClear.2 mph86%30.33 "Hg6 mi
7:50 pm23 °FClear.1 mph93%30.33 "Hg6 mi
6:50 pm25 °FClear.1 mph93%30.33 "Hg6 mi
5:50 pm27 °FClear.2 mph86%30.33 "Hg6 mi
4:50 pm28 °FClear.2 mph93%30.33 "Hg7 mi
4:20 pm30 °FClear.2 mph80%30.30 "Hg9 mi
3:50 pm34 °FSunny.2 mph70%30.30 "Hg12 mi
3:20 pm36 °FSunny.2 mph65%30.30 "Hg16 mi
2:50 pm36 °FSunny.2 mph65%30.30 "Hg16 mi
2:20 pm36 °FSunny.2 mph65%30.30 "Hg16 mi
1:50 pm34 °FSunny.1 mph70%30.30 "Hg16 mi
1:20 pm34 °FSunny.1 mph70%30.33 "Hg16 mi
12:50 pm32 °FPassing clouds.1 mph69%30.33 "Hg12 mi
12:20 pm32 °FPassing clouds.1 mph75%30.36 "Hg12 mi
11:50 am30 °FPassing clouds.2 mph80%30.36 "Hg9 mi
11:20 am28 °FPassing clouds.1 mph80%30.07 "Hg9 mi
10:50 am30 °FPassing clouds.1 mph75%30.39 "Hg5 mi
10:20 am28 °FPassing clouds.1 mph80%30.39 "Hg5 mi
9:50 am27 °FPassing clouds.1 mph93%30.39 "Hg5 mi
9:20 am23 °FPassing clouds.1 mph86%30.39 "Hg5 mi
8:50 am21 °FScattered clouds.2 mph93%30.39 "Hg5 mi
8:20 am19 °FScattered clouds.1 mph93%30.39 "Hg5 mi
7:50 am19 °FScattered clouds.1 mph86%30.39 "Hg5 mi
7:20 am19 °FPassing clouds.1 mph93%30.39 "Hg5 mi
Weather by CustomWeather, © 2016

See weather overviewHow to use our weather pages